Yreka, CA

12:48 AM PDT on September 26, 2016 (GMT -0700)
Siskiyou County

Weather History for KSIY - March, 2014

Change the Weather History Date:

Monday, March 24, 2014

  Actual Average Record
Temperature  
Mean Temperature 50 °F 43 °F  
Max Temperature 73 °F 57 °F 80 °F (1960)
Min Temperature 27 °F 30 °F 22 °F (1988)
Degree Days  
Heating Degree Days 15 22  
Month to date heating degree days 422 533  
Since 1 July heating degree days 4470 4410  
Cooling Degree Days 0 0  
Month to date cooling degree days 0 0  
Year to date cooling degree days 0 0  
Moisture  
Dew Point 24 °F    
Average Humidity 40    
Maximum Humidity 75    
Minimum Humidity 16    
Precipitation  
Precipitation 0.00 in 0.07 in 0.45 in (1993)
Month to date precipitation 1.69 1.79  
Year to date precipitation 4.13 6.00  
Sea Level Pressure  
Sea Level Pressure 30.12 in    
Wind  
Wind Speed 6 mph (SSE)    
Max Wind Speed 20 mph    
Max Gust Speed 26 mph    
Visibility 10 miles    
Events      
T = Trace of Precipitation, MM = Missing Value Source: NWS Daily Summary

Daily Weather History Graph

Daily Weather History Graph

Search for Another Location

Airport or City:

Trip Planner

Search our weather history database for the weather conditions in past years. The results will help you decide how hot, cold, wet, or windy it might be!

Date:

Astronomy

Mar. 24, 2014 Rise Set
Actual Time 7:06 AM PDT 7:26 PM PDT
Civil Twilight 6:38 AM PDT 7:54 PM PDT
Nautical Twilight 6:05 AM PDT 8:27 PM PDT
Astronomical Twilight 5:32 AM PDT 9:00 PM PDT
Moon 2:45 AM PDT (3/24) 12:53 PM PDT (3/24)
Length of Visible Light 13h 16m
Length of Day
12h 20m
Last Quarter, 42% of the Moon is Illuminated
Mar 24
Last Quarter
Mar 30
New
Apr 7
First Quarter
Apr 15
Full
Apr 22
Last Quarter

Hourly Weather History & Observations

Time (PDT) Temp. Windchill Dew Point Humidity Pressure Visibility Wind Dir Wind Speed Gust Speed Precip Events Conditions
12:53 AM 37.9 °F - 21.0 °F 51% 30.23 in 10.0 mi Calm Calm - N/A   Clear
1:53 AM 37.9 °F 31.5 °F 21.9 °F 53% 30.22 in 10.0 mi NE 9.2 mph - N/A   Clear
2:53 AM 34.0 °F 31.0 °F 21.0 °F 59% 30.22 in 10.0 mi ENE 3.5 mph - N/A   Clear
3:53 AM 30.9 °F 26.2 °F 21.0 °F 67% 30.21 in 10.0 mi NE 4.6 mph - N/A   Clear
4:53 AM 32.0 °F 28.7 °F 21.0 °F 64% 30.19 in 10.0 mi NE 3.5 mph - N/A   Clear
5:53 AM 30.0 °F - 19.0 °F 64% 30.21 in 10.0 mi Calm Calm - N/A   Clear
6:53 AM 27.0 °F 23.0 °F 19.9 °F 75% 30.22 in 10.0 mi WNW 3.5 mph - N/A   Clear
7:53 AM 30.9 °F - 19.9 °F 64% 30.23 in 10.0 mi Calm Calm - N/A   Clear
8:53 AM 39.9 °F - 23.0 °F 51% 30.23 in 10.0 mi Calm Calm - N/A   Clear
9:53 AM 45.0 °F - 24.1 °F 44% 30.22 in 10.0 mi Calm Calm - N/A   Clear
10:53 AM 50.0 °F - 26.1 °F 39% 30.21 in 10.0 mi Calm Calm - N/A   Clear
11:53 AM 55.0 °F - 27.0 °F 34% 30.20 in 10.0 mi Calm Calm - N/A   Clear
12:53 PM 60.1 °F - 27.0 °F 28% 30.16 in 10.0 mi Variable 3.5 mph - N/A   Clear
1:53 PM 66.0 °F - 27.0 °F 23% 30.12 in 10.0 mi Variable 3.5 mph - N/A   Clear
2:53 PM 70.0 °F - 27.0 °F 20% 30.09 in 10.0 mi SSW 4.6 mph - N/A   Clear
3:53 PM 72.0 °F - 23.0 °F 16% 30.05 in 10.0 mi South 8.1 mph - N/A   Clear
4:53 PM 72.0 °F - 24.1 °F 17% 30.02 in 10.0 mi Calm Calm - N/A   Clear
5:53 PM 71.1 °F - 26.1 °F 19% 30.00 in 10.0 mi SSE 18.4 mph - N/A   Clear
6:06 PM 70.0 °F - 26.1 °F 19% 29.98 in 10.0 mi South 17.3 mph - N/A   Clear
6:53 PM 66.0 °F - 28.0 °F 24% 30.01 in 10.0 mi South 16.1 mph - N/A   Clear
7:53 PM 61.0 °F - 28.0 °F 29% 30.01 in 10.0 mi South 15.0 mph - N/A   Clear
8:53 PM 61.0 °F - 26.1 °F 26% 29.99 in 10.0 mi South 18.4 mph - N/A   Clear
9:53 PM 55.0 °F - 26.1 °F 33% 30.00 in 10.0 mi South 8.1 mph - N/A   Clear
10:53 PM 52.0 °F - 27.0 °F 38% 29.98 in 10.0 mi SE 11.5 mph - N/A   Clear
11:53 PM 50.0 °F - 28.9 °F 44% 29.96 in 10.0 mi SSW 8.1 mph - N/A   Clear